Regional Weather Roundup
Issued by NWS

Home | Current Version | Previous Version | Graphics & Text | Print | Product List | Glossary On
Versions: 1 2 3 4 5 6 7 8 9 10 11 12 13 14 15 16 17 18 19 20 21 22 23 24 25 26 27 28 29 30 31 32 33 34 35 36 37 38 39 40 41 42 43 44 45
000
ASUS45 KBOU 191910
RWRCO

WEATHER ROUNDUP FOR COLORADO
NATIONAL WEATHER SERVICE DENVER/BOULDER CO
100 PM MDT THU APR 19 2018

NOTE: "FAIR" INDICATES FEW OR NO CLOUDS BELOW 12000 FEET WITH NO
SIGNIFICANT WEATHER AND/OR OBSTRUCTIONS TO VISIBILITY.

COZ001>005-013-030-031-192000-
...NORTHWEST COLORADO...

CITY           SKY/WX    TMP DP  RH WIND       PRES   REMARKS
CRAIG          FAIR      65  16  15 E7        29.96F
HAYDEN         FAIR      62  14  15 N9        29.98F
MEEKER         FAIR      64   4   9 S10G23    29.94F
RANGELY        FAIR      62  13  15 NW6       29.90F
RABBIT EARS PA FAIR      43   5  21 S8G20     30.17F
STEAMBOAT SPGS FAIR      61   8  12 SE10G18   29.99F
WALDEN         FAIR      57  -2   9 SW15G22   30.09F
$$

COZ006>008-011-192000-
...WEST CENTRAL VALLEYS...

CITY           SKY/WX    TMP DP  RH WIND       PRES   REMARKS
GRAND JUNCTION FAIR      64  22  20 W9        29.86F
MONTROSE       FAIR      70  -6   5 S10G28    29.91F
EAGLE          FAIR      61  12  14 SW7       30.00F
RIFLE          FAIR      68   9  10 CALM      29.89F
DELTA          FAIR      72   3   7 CALM      29.89F
NUCLA          FAIR      68   1   7 S24G35    29.95F HAZE
$$

COZ017>023-064>068-192000-
...SOUTHWEST COLORADO...

CITY           SKY/WX    TMP DP  RH WIND       PRES   REMARKS
DURANGO        FAIR      65   9  11 S18G33    30.06F
CORTEZ         FAIR      69   3   7 SE20G31   29.96F
PAGOSA SPRINGS FAIR      62   2   9 S17       30.13F
TELLURIDE      FAIR      53   3  12 S20G37    30.09F
WOLF CREEK PAS FAIR      37  10  32 S25G46    30.30F
$$

COZ009-010-012-014-032>034-037-058>063-192000-
...CENTRAL COLORADO...

CITY           SKY/WX    TMP DP  RH WIND       PRES   REMARKS
ASPEN          FAIR      60   7  12 SW15      30.01F
BUENA VISTA    FAIR      56   6  13 SE20      30.14F
COPPER MTN     NOT AVBL
BERTHOUD PASS  FAIR      32  21  64 S24G31    30.29S WCI  19
COTTONWOOD PAS FAIR      54   7  15 SE21      30.19F
GUNNISON       FAIR      60   4  10 S15G23    30.04F
GRANBY         FAIR      58   3  10 SE9       30.08F
KREMMLING      FAIR      64  -4   6 N3        30.04F
LEADVILLE      FAIR      48  11  22 S22G30    30.14F
MONARCH PASS   FAIR      37   5  25 S21G32    30.39S
SALIDA         FAIR      58   7  13 SE16G22   30.20F
SUNLIGHT       FAIR      43   5  21 SE7       30.19F
WILKERSON PASS FAIR      45   1  16 SW9G18    30.30F
$$

COZ069>075-192000-
...SAN LUIS VALLEY/SANGRE DE CRISTO MOUNTAINS...

CITY           SKY/WX    TMP DP  RH WIND       PRES   REMARKS
ALAMOSA        FAIR      63  10  12 S31G39    30.11F
DEL NORTE      FAIR      57  13  17 N5        30.14F
LA VETA PASS   FAIR      52  12  20 S8G30     30.38F
SAGUACHE       NOT AVBL
$$

COZ035-036-038>040-192000-
...NORTHERN COLORADO FRONT RANGE...

CITY           SKY/WX    TMP DP  RH WIND       PRES   REMARKS
DENVER INTL AP PTSUNNY   63  17  17 S17G32    30.12F
AURORA         PTSUNNY   61  16  17 S14G22    30.13F
FRONT RANGE AP PTSUNNY   61  16  17 S17G31    30.15F
ERIE MUNI ARPT FAIR      56  17  21 N3        30.20F
BOULDER MUN AP FAIR      52  18  25 NW3       30.15F
CENTENNIAL     PTSUNNY   60  19  20 SW13G20   30.12F
BROOMFIELD     PTSUNNY   54  16  22 N5        30.16F
FORT COLLINS   FAIR      56  20  24 SE10      30.15F
LONGMONT       FAIR      60  18  19 E7        30.17F
$$

COZ041-046-047-076>085-087-088-192000-
...PIKES PEAK/PALMER DIVIDE AND SOUTHERN FOOTHILLS...

CITY           SKY/WX    TMP DP  RH WIND       PRES   REMARKS
COLO. SPRINGS  PTSUNNY   55  13  18 SE20G29   30.21F
A. F. ACADEMY  FAIR      54  10  17 S12G25    30.19F
SCHRIEVER AFB  NOT AVBL
CHEYENNE MTN   FAIR      51  11  19 SE18G26   30.15F
ELLICOTT         N/A    N/A N/A N/A S23G36    30.18F
FALCON         FAIR      52   8  17 S15G23    30.23F
FORT CARSON    FAIR      55  12  18 SE9G17    30.18F
LIMON          FAIR      58  14  17 S29G47    30.21F
MONUMENT HILL  FAIR      50  12  22 S29G36    30.19F
CANON CITY     FAIR      57  16  19 E9        30.17F
WALSENBURG     NOT AVBL
TRINIDAD       FAIR      63  12  13 S20G32    30.18F
$$

COZ042>045-048>051-090-091-192000-
...NORTHEAST COLORADO...

CITY           SKY/WX    TMP DP  RH WIND       PRES   REMARKS
GREELEY ARPT   FAIR      63  19  18 SE22G29   30.15F
AKRON          FAIR      56  26  31 SE29G37   30.23F
BURLINGTON     FAIR      60  25  26 SE33G44   30.27F
WRAY           FAIR      61  28  29 SE18G31   30.28F
YUMA           FAIR      55  25  30 SE24G35   30.25F
STERLING       NOT AVBL
HOLYOKE        FAIR      59  30  33 SE20G28   30.28F
FORT MORGAN    FAIR      58  17  19 SE23G37   30.20F
$$

COZ086-089-092>099-192000-
...SOUTHEAST COLORADO...

CITY           SKY/WX    TMP DP  RH WIND       PRES   REMARKS
PUEBLO         FAIR      60  16  18 CALM      30.16F
LA JUNTA       FAIR      69  14  12 VRB7G30   30.16F
LAMAR          FAIR      65  22  19 SE26G40   30.23F
SPRINGFIELD      N/A     60  24  25 S26G36    30.28F
$$




USA.gov is the U.S. government's official web portal to all federal, state and local government web resources and services.